Tracking 29089 objects as of 12-Jul-2024
HD Live streaming from Space Station
objects crossing your sky now

ATLAS 5 CENTAUR DEB

Track ATLAS 5 CENTAUR DEB now!


NORAD ID: 44692
Int'l Code: 2018-079BE
Perigee: 9,216.0 km
Apogee: 36,984.2 km
Inclination: 10.8 °
Period: 839.2 minutes
Semi major axis: 29471 km
RCS: Unknown
Launch date: October 17, 2018
Source: United States (US)
Launch site: AIR FORCE EASTERN TEST RANGE (AFETR)

Note: This is SATELLITE DEBRIS
Your satellite tracking list
Your tracking list is empty




NASA's NSSDC Master Catalog

Two Line Element Set (TLE):
1 44692U 18079BE  24180.28065169 -.00000084  00000-0  00000-0 0  9995
2 44692  10.7728 133.0222 4711081 133.6599 276.5321  1.71596501 31020
Source of the keplerian elements: AFSPC